Time,TemperatureF,DewpointF,PressureIn,WindDirection,WindDirectionDegrees,WindSpeedMPH,WindSpeedGustMPH,Humidity,HourlyPrecipIn,Conditions,Clouds,dailyrainin,SoftwareType,DateUTC
2013-09-26 00:01:00,50.7,43.5,29.90,ESE,113,0.0,0.0,76,0.00,,,0.00,WUHU216HW,2013-09-26 04:01:00,
2013-09-26 00:06:00,50.6,43.4,29.91,ESE,113,0.0,0.0,76,0.00,,,0.00,WUHU216HW,2013-09-26 04:06:00,
2013-09-26 00:11:00,50.6,43.4,29.90,SE,135,0.0,0.0,76,0.00,,,0.00,WUHU216HW,2013-09-26 04:11:00,
2013-09-26 00:16:00,50.4,43.5,29.91,SE,135,0.0,0.0,77,0.00,,,0.00,WUHU216HW,2013-09-26 04:16:00,
2013-09-26 00:21:00,50.4,43.5,29.91,SE,135,0.0,0.0,77,0.00,,,0.00,WUHU216HW,2013-09-26 04:21:00,
2013-09-26 00:26:00,50.4,43.5,29.91,SE,135,0.0,0.0,77,0.00,,,0.00,WUHU216HW,2013-09-26 04:26:00,
2013-09-26 00:31:00,50.2,43.3,29.91,SE,135,0.0,0.0,77,0.00,,,0.00,WUHU216HW,2013-09-26 04:31:00,
2013-09-26 00:36:00,50.2,43.3,29.91,SE,135,0.0,0.0,77,0.00,,,0.00,WUHU216HW,2013-09-26 04:36:00,
2013-09-26 00:41:00,50.2,43.3,29.90,SE,135,0.0,0.0,77,0.00,,,0.00,WUHU216HW,2013-09-26 04:41:00,
2013-09-26 00:46:00,50.2,43.7,29.91,SE,135,0.0,0.0,78,0.00,,,0.00,WUHU216HW,2013-09-26 04:46:00,
2013-09-26 00:51:00,50.2,43.7,29.91,SE,135,0.0,0.0,78,0.00,,,0.00,WUHU216HW,2013-09-26 04:51:00,
2013-09-26 00:56:00,50.0,43.5,29.91,SE,135,0.0,0.0,78,0.00,,,0.00,WUHU216HW,2013-09-26 04:56:00,
2013-09-26 01:01:00,50.0,43.5,29.91,SE,135,0.0,0.0,78,0.00,,,0.00,WUHU216HW,2013-09-26 05:01:00,
2013-09-26 01:06:00,49.8,43.3,29.91,SE,135,0.0,0.0,78,0.00,,,0.00,WUHU216HW,2013-09-26 05:06:00,
2013-09-26 01:11:00,49.8,43.3,29.91,SE,135,0.0,0.0,78,0.00,,,0.00,WUHU216HW,2013-09-26 05:11:00,
2013-09-26 01:16:00,49.7,43.2,29.91,SE,135,0.0,0.0,78,0.00,,,0.00,WUHU216HW,2013-09-26 05:16:00,
2013-09-26 01:21:00,49.7,43.2,29.91,SE,135,0.0,0.0,78,0.00,,,0.00,WUHU216HW,2013-09-26 05:21:00,
2013-09-26 01:26:00,49.5,43.0,29.91,SE,135,0.0,0.0,78,0.00,,,0.00,WUHU216HW,2013-09-26 05:26:00,
2013-09-26 01:31:00,49.5,43.3,29.91,SE,135,0.0,0.0,79,0.00,,,0.00,WUHU216HW,2013-09-26 05:31:00,
2013-09-26 01:36:00,49.5,43.3,29.91,SE,135,0.0,0.0,79,0.00,,,0.00,WUHU216HW,2013-09-26 05:36:00,
2013-09-26 01:41:00,49.5,43.3,29.91,SE,135,0.0,0.0,79,0.00,,,0.00,WUHU216HW,2013-09-26 05:41:00,
2013-09-26 01:46:00,49.5,43.3,29.91,SE,135,0.0,0.0,79,0.00,,,0.00,WUHU216HW,2013-09-26 05:46:00,
2013-09-26 01:51:00,49.3,43.1,29.91,SE,135,0.0,0.0,79,0.00,,,0.00,WUHU216HW,2013-09-26 05:51:00,
2013-09-26 01:56:00,49.3,43.4,29.91,SE,135,0.0,0.0,80,0.00,,,0.00,WUHU216HW,2013-09-26 05:56:00,
2013-09-26 02:01:00,49.1,43.2,29.91,SE,135,0.0,0.0,80,0.00,,,0.00,WUHU216HW,2013-09-26 06:01:00,
2013-09-26 02:06:00,49.1,43.2,29.91,SE,135,0.0,0.0,80,0.00,,,0.00,WUHU216HW,2013-09-26 06:06:00,
2013-09-26 02:11:00,49.1,43.2,29.91,ESE,113,0.0,0.0,80,0.00,,,0.00,WUHU216HW,2013-09-26 06:11:00,
2013-09-26 02:16:00,48.9,43.0,29.91,SE,135,0.0,0.0,80,0.00,,,0.00,WUHU216HW,2013-09-26 06:16:00,
2013-09-26 02:21:00,48.9,43.0,29.91,SE,135,0.0,0.0,80,0.00,,,0.00,WUHU216HW,2013-09-26 06:21:00,
2013-09-26 02:26:00,48.9,43.0,29.90,SE,135,0.0,0.0,80,0.00,,,0.00,WUHU216HW,2013-09-26 06:26:00,
2013-09-26 02:31:00,48.8,42.9,29.90,SE,135,0.0,0.0,80,0.00,,,0.00,WUHU216HW,2013-09-26 06:31:00,
2013-09-26 02:36:00,48.8,42.9,29.90,SE,135,0.0,0.0,80,0.00,,,0.00,WUHU216HW,2013-09-26 06:36:00,
2013-09-26 02:41:00,48.8,42.9,29.90,SE,135,0.0,0.0,80,0.00,,,0.00,WUHU216HW,2013-09-26 06:41:00,
2013-09-26 02:46:00,48.8,43.3,29.91,SE,135,0.0,0.0,81,0.00,,,0.00,WUHU216HW,2013-09-26 06:46:00,
2013-09-26 02:51:00,48.8,43.3,29.91,SE,135,0.0,0.0,81,0.00,,,0.00,WUHU216HW,2013-09-26 06:51:00,
2013-09-26 02:56:00,48.8,43.3,29.91,SE,135,0.0,0.0,81,0.00,,,0.00,WUHU216HW,2013-09-26 06:56:00,
2013-09-26 03:01:00,48.8,43.3,29.91,SE,135,0.0,0.0,81,0.00,,,0.00,WUHU216HW,2013-09-26 07:01:00,
2013-09-26 03:06:00,48.6,43.1,29.91,SE,135,0.0,0.0,81,0.00,,,0.00,WUHU216HW,2013-09-26 07:06:00,
2013-09-26 03:11:00,48.6,43.1,29.91,SSW,203,0.0,0.0,81,0.00,,,0.00,WUHU216HW,2013-09-26 07:11:00,
2013-09-26 03:16:00,48.4,42.9,29.91,ESE,113,0.0,0.0,81,0.00,,,0.00,WUHU216HW,2013-09-26 07:16:00,
2013-09-26 03:21:00,48.4,42.9,29.91,ESE,113,0.0,0.0,81,0.00,,,0.00,WUHU216HW,2013-09-26 07:21:00,
2013-09-26 03:26:00,48.2,42.7,29.91,ESE,113,0.0,0.0,81,0.00,,,0.00,WUHU216HW,2013-09-26 07:26:00,
2013-09-26 03:31:00,48.2,42.7,29.91,ESE,113,0.0,0.0,81,0.00,,,0.00,WUHU216HW,2013-09-26 07:31:00,
2013-09-26 03:36:00,48.0,42.8,29.91,ESE,113,0.0,0.0,82,0.00,,,0.00,WUHU216HW,2013-09-26 07:36:00,
2013-09-26 03:41:00,48.0,42.8,29.91,ESE,113,0.0,0.0,82,0.00,,,0.00,WUHU216HW,2013-09-26 07:41:00,
2013-09-26 03:46:00,48.0,42.8,29.91,ESE,113,0.0,0.0,82,0.00,,,0.00,WUHU216HW,2013-09-26 07:46:00,
2013-09-26 03:51:00,47.9,42.7,29.91,ESE,113,0.0,0.0,82,0.00,,,0.00,WUHU216HW,2013-09-26 07:51:00,
2013-09-26 03:56:00,47.9,42.7,29.91,ESE,113,0.0,0.0,82,0.00,,,0.00,WUHU216HW,2013-09-26 07:56:00,
2013-09-26 04:01:00,47.9,42.7,29.91,ESE,113,0.0,0.0,82,0.00,,,0.00,WUHU216HW,2013-09-26 08:01:00,
2013-09-26 04:06:00,47.7,42.5,29.91,ESE,113,0.0,0.0,82,0.00,,,0.00,WUHU216HW,2013-09-26 08:06:00,
2013-09-26 04:11:00,47.7,42.5,29.91,ESE,113,0.0,0.0,82,0.00,,,0.00,WUHU216HW,2013-09-26 08:11:00,
2013-09-26 04:16:00,47.7,42.5,29.91,ESE,113,0.0,0.0,82,0.00,,,0.00,WUHU216HW,2013-09-26 08:16:00,
2013-09-26 04:21:00,47.7,42.5,29.91,ESE,113,0.0,0.0,82,0.00,,,0.00,WUHU216HW,2013-09-26 08:21:00,
2013-09-26 04:26:00,47.5,42.3,29.91,ESE,113,0.0,0.0,82,0.00,,,0.00,WUHU216HW,2013-09-26 08:26:00,
2013-09-26 04:31:00,47.5,42.3,29.92,ESE,113,0.4,0.4,82,0.00,,,0.00,WUHU216HW,2013-09-26 08:31:00,
2013-09-26 04:36:00,47.3,42.1,29.92,SE,135,0.0,0.4,82,0.00,,,0.00,WUHU216HW,2013-09-26 08:36:00,
2013-09-26 04:41:00,47.3,42.1,29.92,SE,135,0.0,0.4,82,0.00,,,0.00,WUHU216HW,2013-09-26 08:41:00,
2013-09-26 04:46:00,47.3,42.1,29.92,ESE,113,0.0,0.0,82,0.00,,,0.00,WUHU216HW,2013-09-26 08:46:00,
2013-09-26 04:51:00,47.3,42.1,29.92,ESE,113,0.0,0.0,82,0.00,,,0.00,WUHU216HW,2013-09-26 08:51:00,
2013-09-26 04:56:00,47.3,42.1,29.92,ESE,113,0.0,0.0,82,0.00,,,0.00,WUHU216HW,2013-09-26 08:56:00,
2013-09-26 05:01:00,47.3,42.1,29.92,ESE,113,0.0,0.0,82,0.00,,,0.00,WUHU216HW,2013-09-26 09:01:00,
2013-09-26 05:06:00,47.1,41.9,29.92,SE,135,0.4,0.9,82,0.00,,,0.00,WUHU216HW,2013-09-26 09:06:00,
2013-09-26 05:11:00,47.1,41.9,29.92,SE,135,0.0,0.9,82,0.00,,,0.00,WUHU216HW,2013-09-26 09:11:00,
2013-09-26 05:16:00,47.1,41.9,29.92,ESE,113,0.0,0.4,82,0.00,,,0.00,WUHU216HW,2013-09-26 09:16:00,
2013-09-26 05:21:00,47.1,41.9,29.92,ESE,113,0.0,0.0,82,0.00,,,0.00,WUHU216HW,2013-09-26 09:21:00,
2013-09-26 05:26:00,47.0,41.8,29.92,ESE,113,0.0,0.0,82,0.00,,,0.00,WUHU216HW,2013-09-26 09:26:00,
2013-09-26 05:31:00,47.0,41.8,29.92,ESE,113,0.0,0.4,82,0.00,,,0.00,WUHU216HW,2013-09-26 09:31:00,
2013-09-26 05:36:00,47.0,42.1,29.92,ESE,113,0.0,0.7,83,0.00,,,0.00,WUHU216HW,2013-09-26 09:36:00,
2013-09-26 05:41:00,47.0,42.1,29.93,ESE,113,0.0,0.7,83,0.00,,,0.00,WUHU216HW,2013-09-26 09:41:00,
2013-09-26 05:46:00,46.8,41.9,29.93,SE,135,0.4,0.4,83,0.00,,,0.00,WUHU216HW,2013-09-26 09:46:00,
2013-09-26 05:51:00,47.0,42.1,29.93,ESE,113,0.0,0.4,83,0.00,,,0.00,WUHU216HW,2013-09-26 09:51:00,
2013-09-26 05:56:00,46.8,41.9,29.93,ESE,113,0.0,0.4,83,0.00,,,0.00,WUHU216HW,2013-09-26 09:56:00,
2013-09-26 06:01:00,46.8,41.9,29.93,ESE,113,0.0,0.0,83,0.00,,,0.00,WUHU216HW,2013-09-26 10:01:00,
2013-09-26 06:06:00,46.8,41.9,29.93,ESE,113,0.0,0.0,83,0.00,,,0.00,WUHU216HW,2013-09-26 10:06:00,
2013-09-26 06:11:00,46.8,41.9,29.94,SE,135,0.4,0.4,83,0.00,,,0.00,WUHU216HW,2013-09-26 10:11:00,
2013-09-26 06:16:00,46.6,41.7,29.94,SE,135,0.4,0.7,83,0.00,,,0.00,WUHU216HW,2013-09-26 10:16:00,
2013-09-26 06:21:00,46.6,41.7,29.94,SE,135,0.0,0.7,83,0.00,,,0.00,WUHU216HW,2013-09-26 10:21:00,
2013-09-26 06:26:00,46.6,41.7,29.94,SE,135,0.2,0.4,83,0.00,,,0.00,WUHU216HW,2013-09-26 10:26:00,
2013-09-26 06:31:00,46.6,41.7,29.94,SE,135,0.0,0.4,83,0.00,,,0.00,WUHU216HW,2013-09-26 10:31:00,
2013-09-26 06:36:00,46.6,41.7,29.94,SE,135,0.0,0.4,83,0.00,,,0.00,WUHU216HW,2013-09-26 10:36:00,
2013-09-26 06:41:00,46.6,41.7,29.94,SE,135,0.0,0.0,83,0.00,,,0.00,WUHU216HW,2013-09-26 10:41:00,
2013-09-26 06:46:00,46.6,41.7,29.94,SE,135,0.0,0.0,83,0.00,,,0.00,WUHU216HW,2013-09-26 10:46:00,
2013-09-26 06:51:00,46.6,42.0,29.94,SE,135,0.0,0.0,84,0.00,,,0.00,WUHU216HW,2013-09-26 10:51:00,
2013-09-26 06:56:00,46.6,41.7,29.94,SSW,203,0.2,0.2,83,0.00,,,0.00,WUHU216HW,2013-09-26 10:56:00,
2013-09-26 07:01:00,46.6,41.7,29.94,SSW,203,0.0,0.2,83,0.00,,,0.00,WUHU216HW,2013-09-26 11:01:00,
2013-09-26 07:06:00,46.8,41.9,29.95,SSW,203,0.0,0.2,83,0.00,,,0.00,WUHU216HW,2013-09-26 11:06:00,
2013-09-26 07:11:00,47.0,42.4,29.94,SSW,203,0.0,0.2,84,0.00,,,0.00,WUHU216HW,2013-09-26 11:11:00,
2013-09-26 07:16:00,47.0,42.4,29.95,SSW,203,0.0,0.2,84,0.00,,,0.00,WUHU216HW,2013-09-26 11:16:00,
2013-09-26 07:21:00,47.0,42.4,29.95,SSW,203,0.0,0.0,84,0.00,,,0.00,WUHU216HW,2013-09-26 11:21:00,
2013-09-26 07:26:00,47.1,42.5,29.95,SSW,203,0.0,0.0,84,0.00,,,0.00,WUHU216HW,2013-09-26 11:26:00,
2013-09-26 07:31:00,47.1,42.8,29.95,SSW,203,0.0,0.4,85,0.00,,,0.00,WUHU216HW,2013-09-26 11:31:00,
2013-09-26 07:36:00,47.1,42.8,29.95,SSW,203,0.2,1.1,85,0.00,,,0.00,WUHU216HW,2013-09-26 11:36:00,
2013-09-26 07:41:00,47.3,43.0,29.96,SSW,203,0.9,1.1,85,0.00,,,0.00,WUHU216HW,2013-09-26 11:41:00,
2013-09-26 07:46:00,47.3,42.7,29.96,SSW,203,0.0,0.9,84,0.00,,,0.00,WUHU216HW,2013-09-26 11:46:00,
2013-09-26 07:51:00,47.5,43.2,29.96,SSW,203,0.4,0.4,85,0.00,,,0.00,WUHU216HW,2013-09-26 11:51:00,
2013-09-26 07:56:00,47.7,43.7,29.96,SSW,203,0.2,0.9,86,0.00,,,0.00,WUHU216HW,2013-09-26 11:56:00,
2013-09-26 08:01:00,47.9,43.9,29.96,SSW,203,0.0,1.1,86,0.00,,,0.00,WUHU216HW,2013-09-26 12:01:00,
2013-09-26 08:06:00,48.0,44.0,29.96,SSW,203,0.0,1.1,86,0.00,,,0.00,WUHU216HW,2013-09-26 12:06:00,
2013-09-26 08:11:00,48.2,44.2,29.96,SSW,203,0.2,0.9,86,0.00,,,0.00,WUHU216HW,2013-09-26 12:11:00,
2013-09-26 08:16:00,48.4,44.4,29.96,SSW,203,0.4,0.4,86,0.00,,,0.00,WUHU216HW,2013-09-26 12:16:00,
2013-09-26 08:21:00,48.6,44.6,29.96,SSW,203,0.2,0.4,86,0.00,,,0.00,WUHU216HW,2013-09-26 12:21:00,
2013-09-26 08:27:00,48.8,45.1,29.96,SSW,203,1.1,1.1,87,0.00,,,0.00,WUHU216HW,2013-09-26 12:27:00,
2013-09-26 08:32:00,49.1,45.4,29.97,SSW,203,0.7,1.1,87,0.00,,,0.00,WUHU216HW,2013-09-26 12:32:00,
2013-09-26 08:37:00,49.1,45.1,29.97,SSW,203,0.2,1.1,86,0.00,,,0.00,WUHU216HW,2013-09-26 12:37:00,
2013-09-26 08:42:00,49.5,45.5,29.97,SSW,203,0.0,1.1,86,0.00,,,0.00,WUHU216HW,2013-09-26 12:42:00,
2013-09-26 08:47:00,49.5,45.8,29.97,SSW,203,0.4,0.9,87,0.00,,,0.00,WUHU216HW,2013-09-26 12:47:00,
2013-09-26 08:52:00,49.8,46.1,29.97,SW,225,1.1,1.1,87,0.00,,,0.00,WUHU216HW,2013-09-26 12:52:00,
2013-09-26 08:57:00,50.0,46.3,29.97,SSW,203,0.0,1.1,87,0.00,,,0.00,WUHU216HW,2013-09-26 12:57:00,
2013-09-26 09:02:00,50.2,46.2,29.97,ENE,68,0.4,1.8,86,0.00,,,0.00,WUHU216HW,2013-09-26 13:02:00,
2013-09-26 09:07:00,50.6,46.6,29.97,NNW,338,1.1,1.8,86,0.00,,,0.00,WUHU216HW,2013-09-26 13:07:00,
2013-09-26 09:12:00,51.3,47.2,29.97,NNW,338,1.1,1.8,86,0.00,,,0.00,WUHU216HW,2013-09-26 13:12:00,
2013-09-26 09:17:00,51.8,47.7,29.97,North,0,0.0,1.8,86,0.00,,,0.00,WUHU216HW,2013-09-26 13:17:00,
2013-09-26 09:22:00,52.2,48.4,29.98,East,90,0.2,1.8,87,0.00,,,0.00,WUHU216HW,2013-09-26 13:22:00,
2013-09-26 09:27:00,52.5,48.7,29.98,SSW,203,0.4,0.9,87,0.00,,,0.00,WUHU216HW,2013-09-26 13:27:00,
2013-09-26 09:32:00,52.9,48.8,29.98,SE,135,0.9,1.3,86,0.00,,,0.00,WUHU216HW,2013-09-26 13:32:00,
2013-09-26 09:37:00,53.1,49.0,29.98,NNW,338,0.0,1.3,86,0.00,,,0.00,WUHU216HW,2013-09-26 13:37:00,
2013-09-26 09:42:00,53.3,49.5,29.98,NE,45,0.0,1.6,87,0.00,,,0.00,WUHU216HW,2013-09-26 13:42:00,
2013-09-26 09:47:00,53.6,49.8,29.98,NNW,338,0.4,1.8,87,0.00,,,0.00,WUHU216HW,2013-09-26 13:47:00,
2013-09-26 09:52:00,54.0,50.2,29.98,SSE,158,0.7,2.0,87,0.00,,,0.00,WUHU216HW,2013-09-26 13:52:00,
2013-09-26 09:57:00,54.2,50.1,29.98,NNW,338,0.4,2.0,86,0.00,,,0.00,WUHU216HW,2013-09-26 13:57:00,
2013-09-26 10:02:00,54.5,50.4,29.98,North,0,1.3,1.3,86,0.00,,,0.00,WUHU216HW,2013-09-26 14:02:00,
2013-09-26 10:07:00,54.7,50.6,29.98,NNW,338,1.3,1.8,86,0.00,,,0.00,WUHU216HW,2013-09-26 14:07:00,
2013-09-26 10:12:00,54.9,50.8,29.98,North,0,0.0,1.8,86,0.00,,,0.00,WUHU216HW,2013-09-26 14:12:00,
2013-09-26 10:17:00,55.2,51.1,29.99,West,270,1.6,2.5,86,0.00,,,0.00,WUHU216HW,2013-09-26 14:17:00,
2013-09-26 10:22:00,55.6,51.8,29.99,NNW,338,0.4,2.5,87,0.00,,,0.00,WUHU216HW,2013-09-26 14:22:00,
2013-09-26 10:27:00,56.0,52.2,29.99,North,0,0.2,2.0,87,0.00,,,0.00,WUHU216HW,2013-09-26 14:27:00,
2013-09-26 10:32:00,56.1,52.0,29.98,NNW,338,1.8,2.5,86,0.00,,,0.00,WUHU216HW,2013-09-26 14:32:00,
2013-09-26 10:37:00,56.5,52.4,29.99,North,0,0.2,2.9,86,0.00,,,0.00,WUHU216HW,2013-09-26 14:37:00,
2013-09-26 10:42:00,56.7,52.2,29.99,NE,45,0.4,2.9,85,0.00,,,0.00,WUHU216HW,2013-09-26 14:42:00,
2013-09-26 10:47:00,57.0,52.5,29.99,North,0,0.7,2.5,85,0.00,,,0.00,WUHU216HW,2013-09-26 14:47:00,
2013-09-26 10:52:00,57.2,52.4,29.99,NW,315,0.9,0.9,84,0.00,,,0.00,WUHU216HW,2013-09-26 14:52:00,
2013-09-26 10:57:00,57.4,52.6,29.99,NNW,338,0.0,1.8,84,0.00,,,0.00,WUHU216HW,2013-09-26 14:57:00,
2013-09-26 11:02:00,57.8,52.7,29.98,NNE,23,1.8,1.8,83,0.00,,,0.00,WUHU216HW,2013-09-26 15:02:00,
2013-09-26 11:07:00,57.9,52.8,29.98,East,90,0.2,1.8,83,0.00,,,0.00,WUHU216HW,2013-09-26 15:07:00,
2013-09-26 11:12:00,57.9,52.8,29.98,NW,315,0.7,1.3,83,0.00,,,0.00,WUHU216HW,2013-09-26 15:12:00,
2013-09-26 11:17:00,58.1,53.0,29.99,NNW,338,1.8,2.9,83,0.00,,,0.00,WUHU216HW,2013-09-26 15:17:00,
2013-09-26 11:22:00,58.3,52.5,29.99,NW,315,0.2,2.9,81,0.00,,,0.00,WUHU216HW,2013-09-26 15:22:00,
2013-09-26 11:27:00,58.5,53.1,29.99,NE,45,0.4,1.8,82,0.00,,,0.00,WUHU216HW,2013-09-26 15:27:00,
2013-09-26 11:32:00,58.5,52.7,29.99,South,180,1.1,1.8,81,0.00,,,0.00,WUHU216HW,2013-09-26 15:32:00,
2013-09-26 11:37:00,58.7,52.9,29.99,NNW,338,1.1,1.8,81,0.00,,,0.00,WUHU216HW,2013-09-26 15:37:00,
2013-09-26 11:42:00,58.8,53.0,29.99,North,0,0.9,3.6,81,0.00,,,0.00,WUHU216HW,2013-09-26 15:42:00,
2013-09-26 11:47:00,59.0,52.9,29.99,NW,315,0.9,3.6,80,0.00,,,0.00,WUHU216HW,2013-09-26 15:47:00,
2013-09-26 11:52:00,59.2,53.1,29.99,NNE,23,1.3,1.8,80,0.00,,,0.00,WUHU216HW,2013-09-26 15:52:00,
2013-09-26 11:57:00,59.4,53.3,29.99,South,180,0.2,1.8,80,0.00,,,0.00,WUHU216HW,2013-09-26 15:57:00,
2013-09-26 12:02:00,59.6,53.1,29.99,NNW,338,0.9,1.1,79,0.00,,,0.00,WUHU216HW,2013-09-26 16:02:00,
2013-09-26 12:07:00,59.6,53.1,29.99,North,0,0.2,1.1,79,0.00,,,0.00,WUHU216HW,2013-09-26 16:07:00,
2013-09-26 12:12:00,59.7,53.2,29.99,North,0,0.9,1.1,79,0.00,,,0.00,WUHU216HW,2013-09-26 16:12:00,
2013-09-26 12:17:00,59.9,53.4,29.99,SSE,158,0.4,1.1,79,0.00,,,0.00,WUHU216HW,2013-09-26 16:17:00,
2013-09-26 12:22:00,60.3,53.5,29.99,WSW,248,0.7,2.9,78,0.00,,,0.00,WUHU216HW,2013-09-26 16:22:00,
2013-09-26 12:27:00,60.6,53.8,29.99,West,270,0.0,2.9,78,0.00,,,0.00,WUHU216HW,2013-09-26 16:27:00,
2013-09-26 12:32:00,61.0,53.8,29.99,West,270,1.6,1.6,77,0.00,,,0.00,WUHU216HW,2013-09-26 16:32:00,
2013-09-26 12:37:00,61.4,54.2,29.99,North,0,0.4,1.6,77,0.00,,,0.00,WUHU216HW,2013-09-26 16:37:00,
2013-09-26 12:42:00,61.7,54.5,29.99,NE,45,0.9,1.8,77,0.00,,,0.00,WUHU216HW,2013-09-26 16:42:00,
2013-09-26 12:47:00,61.7,54.5,29.99,NNW,338,1.3,1.8,77,0.00,,,0.00,WUHU216HW,2013-09-26 16:47:00,
2013-09-26 12:52:00,61.7,54.2,29.99,WNW,293,0.0,1.3,76,0.00,,,0.00,WUHU216HW,2013-09-26 16:52:00,
2013-09-26 12:57:00,61.7,54.2,29.99,SSE,158,0.4,0.4,76,0.00,,,0.00,WUHU216HW,2013-09-26 16:57:00,
2013-09-26 13:02:00,61.7,54.2,29.99,SE,135,0.9,0.9,76,0.00,,,0.00,WUHU216HW,2013-09-26 17:02:00,
2013-09-26 13:07:00,62.1,54.5,29.98,SE,135,0.4,1.1,76,0.00,,,0.00,WUHU216HW,2013-09-26 17:07:00,
2013-09-26 13:12:00,62.4,54.8,29.98,NNE,23,1.1,1.1,76,0.00,,,0.00,WUHU216HW,2013-09-26 17:12:00,
2013-09-26 13:17:00,63.0,55.1,29.98,NNW,338,2.2,2.2,75,0.00,,,0.00,WUHU216HW,2013-09-26 17:17:00,
2013-09-26 13:22:00,63.2,55.3,29.98,NW,315,1.1,2.2,75,0.00,,,0.00,WUHU216HW,2013-09-26 17:22:00,
2013-09-26 13:27:00,63.2,54.9,29.98,NNW,338,1.6,2.2,74,0.00,,,0.00,WUHU216HW,2013-09-26 17:27:00,
2013-09-26 13:32:00,63.2,54.5,29.98,NW,315,0.4,2.7,73,0.00,,,0.00,WUHU216HW,2013-09-26 17:32:00,
2013-09-26 13:37:00,63.2,54.9,29.97,SE,135,1.1,2.7,74,0.00,,,0.00,WUHU216HW,2013-09-26 17:37:00,
2013-09-26 13:42:00,63.2,54.9,29.98,NNW,338,0.7,1.1,74,0.00,,,0.00,WUHU216HW,2013-09-26 17:42:00,
2013-09-26 13:47:00,63.2,54.5,29.97,NNW,338,1.8,2.2,73,0.00,,,0.00,WUHU216HW,2013-09-26 17:47:00,
2013-09-26 13:52:00,63.2,54.5,29.97,NNW,338,0.4,2.2,73,0.00,,,0.00,WUHU216HW,2013-09-26 17:52:00,
2013-09-26 13:57:00,63.2,54.2,29.97,NW,315,0.4,1.8,72,0.00,,,0.00,WUHU216HW,2013-09-26 17:57:00,
2013-09-26 14:02:00,63.0,54.0,29.97,SSE,158,0.0,0.9,72,0.00,,,0.00,WUHU216HW,2013-09-26 18:02:00,
2013-09-26 14:07:00,63.2,54.2,29.97,WNW,293,0.9,0.9,72,0.00,,,0.00,WUHU216HW,2013-09-26 18:07:00,
2013-09-26 14:12:00,63.2,54.2,29.97,SSE,158,0.0,0.9,72,0.00,,,0.00,WUHU216HW,2013-09-26 18:12:00,
2013-09-26 14:17:00,63.2,54.2,29.97,NE,45,0.4,0.4,72,0.00,,,0.00,WUHU216HW,2013-09-26 18:17:00,
2013-09-26 14:22:00,63.2,54.2,29.97,NNW,338,0.4,1.1,72,0.00,,,0.00,WUHU216HW,2013-09-26 18:22:00,
2013-09-26 14:27:00,63.2,54.2,29.97,NNW,338,0.0,1.1,72,0.00,,,0.00,WUHU216HW,2013-09-26 18:27:00,
2013-09-26 14:32:00,63.2,53.8,29.97,WNW,293,0.0,1.1,71,0.00,,,0.00,WUHU216HW,2013-09-26 18:32:00,
2013-09-26 14:37:00,63.2,53.8,29.97,North,0,1.1,1.1,71,0.00,,,0.00,WUHU216HW,2013-09-26 18:37:00,
2013-09-26 14:42:00,63.2,53.8,29.97,North,0,0.0,1.1,71,0.00,,,0.00,WUHU216HW,2013-09-26 18:42:00,
2013-09-26 14:47:00,63.5,54.1,29.97,NNW,338,0.4,1.1,71,0.00,,,0.00,WUHU216HW,2013-09-26 18:47:00,
2013-09-26 14:52:00,63.5,53.7,29.97,NW,315,1.1,1.1,70,0.00,,,0.00,WUHU216HW,2013-09-26 18:52:00,
2013-09-26 14:57:00,63.9,54.1,29.97,SSW,203,0.2,1.1,70,0.00,,,0.00,WUHU216HW,2013-09-26 18:57:00,
2013-09-26 15:02:00,63.9,54.1,29.97,NNW,338,1.3,1.3,70,0.00,,,0.00,WUHU216HW,2013-09-26 19:02:00,
2013-09-26 15:07:00,64.1,54.3,29.97,NNW,338,0.4,1.3,70,0.00,,,0.00,WUHU216HW,2013-09-26 19:07:00,
2013-09-26 15:12:00,64.1,54.3,29.97,NNW,338,0.7,1.3,70,0.00,,,0.00,WUHU216HW,2013-09-26 19:12:00,
2013-09-26 15:17:00,64.1,54.3,29.97,WNW,293,0.0,0.9,70,0.00,,,0.00,WUHU216HW,2013-09-26 19:17:00,
2013-09-26 15:22:00,64.2,54.4,29.97,East,90,0.2,0.2,70,0.00,,,0.00,WUHU216HW,2013-09-26 19:22:00,
2013-09-26 15:27:00,64.2,54.0,29.97,SSE,158,0.4,1.1,69,0.00,,,0.00,WUHU216HW,2013-09-26 19:27:00,
2013-09-26 15:32:00,64.2,54.4,29.97,SW,225,0.4,1.1,70,0.00,,,0.00,WUHU216HW,2013-09-26 19:32:00,
2013-09-26 15:37:00,64.1,54.3,29.98,West,270,0.9,0.9,70,0.00,,,0.00,WUHU216HW,2013-09-26 19:37:00,
2013-09-26 15:42:00,63.9,54.1,29.98,WSW,248,0.4,0.9,70,0.00,,,0.00,WUHU216HW,2013-09-26 19:42:00,
2013-09-26 15:47:00,63.9,54.1,29.97,NW,315,0.4,0.7,70,0.00,,,0.00,WUHU216HW,2013-09-26 19:47:00,
2013-09-26 15:52:00,63.9,54.1,29.97,NNW,338,1.1,1.1,70,0.00,,,0.00,WUHU216HW,2013-09-26 19:52:00,
2013-09-26 15:57:00,63.9,53.7,29.98,NNW,338,0.4,1.1,69,0.00,,,0.00,WUHU216HW,2013-09-26 19:57:00,
2013-09-26 16:02:00,63.9,53.7,29.98,North,0,0.2,1.1,69,0.00,,,0.00,WUHU216HW,2013-09-26 20:02:00,
2013-09-26 16:07:00,63.9,53.7,29.97,NNW,338,0.7,2.5,69,0.00,,,0.00,WUHU216HW,2013-09-26 20:07:00,
2013-09-26 16:12:00,64.2,54.0,29.98,SE,135,1.3,2.5,69,0.00,,,0.00,WUHU216HW,2013-09-26 20:12:00,
2013-09-26 16:17:00,64.4,54.2,29.98,NNW,338,2.5,2.5,69,0.00,,,0.00,WUHU216HW,2013-09-26 20:17:00,
2013-09-26 16:22:00,64.4,53.8,29.98,NNW,338,2.5,2.5,68,0.00,,,0.00,WUHU216HW,2013-09-26 20:22:00,
2013-09-26 16:27:00,64.4,53.4,29.98,North,0,2.0,2.5,67,0.00,,,0.00,WUHU216HW,2013-09-26 20:27:00,
2013-09-26 16:32:00,64.4,53.4,29.98,North,0,0.4,2.2,67,0.00,,,0.00,WUHU216HW,2013-09-26 20:32:00,
2013-09-26 16:37:00,64.6,53.6,29.98,WNW,293,0.4,1.3,67,0.00,,,0.00,WUHU216HW,2013-09-26 20:37:00,
2013-09-26 16:42:00,64.6,53.6,29.98,ESE,113,0.7,1.3,67,0.00,,,0.00,WUHU216HW,2013-09-26 20:42:00,
2013-09-26 16:47:00,66.0,54.9,29.98,SE,135,0.0,0.7,67,0.00,,,0.00,WUHU216HW,2013-09-26 20:47:00,
2013-09-26 16:52:00,66.6,55.5,29.98,WNW,293,0.4,1.1,67,0.00,,,0.00,WUHU216HW,2013-09-26 20:52:00,
2013-09-26 16:57:00,67.5,55.9,29.97,SSE,158,2.2,2.2,66,0.00,,,0.00,WUHU216HW,2013-09-26 20:57:00,
2013-09-26 17:02:00,68.0,56.0,29.97,SE,135,0.0,2.2,65,0.00,,,0.00,WUHU216HW,2013-09-26 21:02:00,
2013-09-26 17:07:00,68.2,56.2,29.98,SE,135,0.0,2.0,65,0.00,,,0.00,WUHU216HW,2013-09-26 21:07:00,
2013-09-26 17:12:00,68.7,56.2,29.97,SSE,158,0.7,1.1,64,0.00,,,0.00,WUHU216HW,2013-09-26 21:12:00,
2013-09-26 17:17:00,68.9,56.0,29.98,SE,135,0.4,2.7,63,0.00,,,0.00,WUHU216HW,2013-09-26 21:17:00,
2013-09-26 17:22:00,69.1,56.2,29.98,North,0,0.0,2.7,63,0.00,,,0.00,WUHU216HW,2013-09-26 21:22:00,
2013-09-26 17:27:00,69.3,56.3,29.98,SSE,158,0.2,1.1,63,0.00,,,0.00,WUHU216HW,2013-09-26 21:27:00,
2013-09-26 17:32:00,69.3,57.2,29.98,NE,45,0.4,1.1,65,0.00,,,0.00,WUHU216HW,2013-09-26 21:32:00,
2013-09-26 17:37:00,69.3,56.3,29.98,SE,135,0.7,1.6,63,0.00,,,0.00,WUHU216HW,2013-09-26 21:37:00,
2013-09-26 17:42:00,69.1,56.2,29.98,SE,135,0.4,1.6,63,0.00,,,0.00,WUHU216HW,2013-09-26 21:42:00,
2013-09-26 17:47:00,68.9,56.4,29.99,East,90,1.1,1.1,64,0.00,,,0.00,WUHU216HW,2013-09-26 21:47:00,
2013-09-26 17:52:00,68.6,56.1,29.99,SSE,158,1.1,1.6,64,0.00,,,0.00,WUHU216HW,2013-09-26 21:52:00,
2013-09-26 17:57:00,68.4,55.9,29.98,SSE,158,0.4,1.8,64,0.00,,,0.00,WUHU216HW,2013-09-26 21:57:00,
2013-09-26 18:02:00,68.2,55.7,29.99,SE,135,0.7,1.8,64,0.00,,,0.00,WUHU216HW,2013-09-26 22:02:00,
2013-09-26 18:07:00,67.8,55.4,29.99,SE,135,0.4,0.7,64,0.00,,,0.00,WUHU216HW,2013-09-26 22:07:00,
2013-09-26 18:12:00,67.5,55.5,29.99,SE,135,0.0,0.4,65,0.00,,,0.00,WUHU216HW,2013-09-26 22:12:00,
2013-09-26 18:17:00,67.3,55.3,29.99,SE,135,0.2,0.2,65,0.00,,,0.00,WUHU216HW,2013-09-26 22:17:00,
2013-09-26 18:22:00,66.9,54.9,29.99,SE,135,0.4,0.9,65,0.00,,,0.00,WUHU216HW,2013-09-26 22:22:00,
2013-09-26 18:27:00,66.6,54.6,29.99,SE,135,0.0,0.9,65,0.00,,,0.00,WUHU216HW,2013-09-26 22:27:00,
2013-09-26 18:32:00,66.0,54.1,29.99,SE,135,0.0,0.7,65,0.00,,,0.00,WUHU216HW,2013-09-26 22:32:00,
2013-09-26 18:37:00,65.7,53.8,29.99,SE,135,0.0,0.0,65,0.00,,,0.00,WUHU216HW,2013-09-26 22:37:00,
2013-09-26 18:42:00,65.3,53.8,30.00,SE,135,0.0,0.0,66,0.00,,,0.00,WUHU216HW,2013-09-26 22:42:00,
2013-09-26 18:47:00,65.0,53.5,29.99,SE,135,0.0,0.0,66,0.00,,,0.00,WUHU216HW,2013-09-26 22:47:00,
2013-09-26 18:52:00,64.2,53.2,30.00,SE,135,0.0,0.0,67,0.00,,,0.00,WUHU216HW,2013-09-26 22:52:00,
2013-09-26 18:57:00,63.9,53.3,30.00,SE,135,0.2,0.2,68,0.00,,,0.00,WUHU216HW,2013-09-26 22:57:00,
2013-09-26 19:02:00,63.5,52.9,30.00,ESE,113,0.0,0.4,68,0.00,,,0.00,WUHU216HW,2013-09-26 23:02:00,
2013-09-26 19:07:00,63.0,52.8,30.00,ESE,113,0.0,0.4,69,0.00,,,0.00,WUHU216HW,2013-09-26 23:07:00,
2013-09-26 19:12:00,62.6,52.4,30.00,SE,135,0.4,0.7,69,0.00,,,0.00,WUHU216HW,2013-09-26 23:12:00,
2013-09-26 19:17:00,62.1,52.3,30.00,SE,135,0.0,0.7,70,0.00,,,0.00,WUHU216HW,2013-09-26 23:17:00,
2013-09-26 19:22:00,61.7,52.0,30.01,SE,135,0.0,0.4,70,0.00,,,0.00,WUHU216HW,2013-09-26 23:22:00,
2013-09-26 19:27:00,61.5,52.1,30.01,SE,135,0.0,0.0,71,0.00,,,0.00,WUHU216HW,2013-09-26 23:27:00,
2013-09-26 19:32:00,61.2,51.9,30.01,SE,135,0.0,0.0,71,0.00,,,0.00,WUHU216HW,2013-09-26 23:32:00,
2013-09-26 19:37:00,61.0,52.0,30.01,SE,135,0.0,0.0,72,0.00,,,0.00,WUHU216HW,2013-09-26 23:37:00,
2013-09-26 19:42:00,60.6,51.7,30.01,SE,135,0.0,0.2,72,0.00,,,0.00,WUHU216HW,2013-09-26 23:42:00,
2013-09-26 19:47:00,60.3,51.7,30.01,SE,135,0.0,0.2,73,0.00,,,0.00,WUHU216HW,2013-09-26 23:47:00,
2013-09-26 19:52:00,60.1,51.2,30.01,SE,135,0.0,0.0,72,0.00,,,0.00,WUHU216HW,2013-09-26 23:52:00,
2013-09-26 19:57:00,59.9,51.3,30.02,SE,135,0.0,0.0,73,0.00,,,0.00,WUHU216HW,2013-09-26 23:57:00,
2013-09-26 20:02:00,59.7,51.1,30.02,SE,135,0.4,0.4,73,0.00,,,0.00,WUHU216HW,2013-09-27 00:02:00,
2013-09-26 20:10:00,59.6,51.1,30.02,SE,135,0.0,1.1,73,0.00,,,0.00,WUHU216HW,2013-09-27 00:10:00,
2013-09-26 20:15:00,59.4,50.9,30.02,SE,135,0.4,1.1,73,0.00,,,0.00,WUHU216HW,2013-09-27 00:15:00,
2013-09-26 20:20:00,59.0,50.8,30.02,SE,135,0.4,0.9,74,0.00,,,0.00,WUHU216HW,2013-09-27 00:20:00,
2013-09-26 20:25:00,58.8,50.6,30.02,SE,135,0.7,0.9,74,0.00,,,0.00,WUHU216HW,2013-09-27 00:25:00,
2013-09-26 20:30:00,58.7,50.9,30.02,ESE,113,0.0,1.1,75,0.00,,,0.00,WUHU216HW,2013-09-27 00:30:00,
2013-09-26 20:35:00,58.7,50.9,30.03,ESE,113,0.0,1.1,75,0.00,,,0.00,WUHU216HW,2013-09-27 00:35:00,
2013-09-26 20:40:00,58.5,51.1,30.03,SE,135,0.0,0.0,76,0.00,,,0.00,WUHU216HW,2013-09-27 00:40:00,
2013-09-26 20:45:00,58.3,50.9,30.03,SE,135,0.0,0.0,76,0.00,,,0.00,WUHU216HW,2013-09-27 00:45:00,
2013-09-26 20:50:00,58.1,50.7,30.03,SE,135,0.0,0.0,76,0.00,,,0.00,WUHU216HW,2013-09-27 00:50:00,
2013-09-26 20:55:00,58.1,50.7,30.03,SE,135,0.0,0.0,76,0.00,,,0.00,WUHU216HW,2013-09-27 00:55:00,
2013-09-26 21:00:00,58.1,50.7,30.03,SE,135,0.0,0.0,76,0.00,,,0.00,WUHU216HW,2013-09-27 01:00:00,
2013-09-26 21:05:00,57.9,50.8,30.04,SE,135,0.0,0.0,77,0.00,,,0.00,WUHU216HW,2013-09-27 01:05:00,
2013-09-26 21:10:00,57.8,50.7,30.04,SE,135,0.0,0.0,77,0.00,,,0.00,WUHU216HW,2013-09-27 01:10:00,
2013-09-26 21:15:00,57.8,50.7,30.04,SE,135,0.0,0.0,77,0.00,,,0.00,WUHU216HW,2013-09-27 01:15:00,
2013-09-26 21:20:00,57.6,50.9,30.04,North,0,0.0,0.0,78,0.00,,,0.00,WUHU216HW,2013-09-27 01:20:00,
2013-09-26 21:25:00,57.6,50.9,30.04,North,0,0.0,0.0,78,0.00,,,0.00,WUHU216HW,2013-09-27 01:25:00,
2013-09-26 21:30:00,57.4,50.7,30.05,North,0,0.0,0.0,78,0.00,,,0.00,WUHU216HW,2013-09-27 01:30:00,
2013-09-26 21:35:00,57.4,50.7,30.05,NE,45,0.0,0.4,78,0.00,,,0.00,WUHU216HW,2013-09-27 01:35:00,
2013-09-26 21:40:00,57.4,50.7,30.05,NE,45,0.0,0.4,78,0.00,,,0.00,WUHU216HW,2013-09-27 01:40:00,
2013-09-26 21:45:00,57.4,50.7,30.05,NE,45,0.0,0.2,78,0.00,,,0.00,WUHU216HW,2013-09-27 01:45:00,
2013-09-26 21:50:00,57.2,50.5,30.05,SE,135,0.4,0.4,78,0.00,,,0.00,WUHU216HW,2013-09-27 01:50:00,
2013-09-26 21:55:00,57.2,50.5,30.05,SE,135,0.4,0.4,78,0.00,,,0.00,WUHU216HW,2013-09-27 01:55:00,
2013-09-26 22:00:00,57.0,50.3,30.05,SE,135,0.0,0.4,78,0.00,,,0.00,WUHU216HW,2013-09-27 02:00:00,
2013-09-26 22:05:00,57.0,50.3,30.05,NW,315,0.0,0.0,78,0.00,,,0.00,WUHU216HW,2013-09-27 02:05:00,
2013-09-26 22:10:00,56.9,49.8,30.05,NW,315,0.0,0.0,77,0.00,,,0.00,WUHU216HW,2013-09-27 02:10:00,
2013-09-26 22:15:00,56.7,49.6,30.05,SE,135,0.0,0.4,77,0.00,,,0.00,WUHU216HW,2013-09-27 02:15:00,
2013-09-26 22:20:00,56.5,49.5,30.05,SSE,158,0.0,0.7,77,0.00,,,0.00,WUHU216HW,2013-09-27 02:20:00,
2013-09-26 22:25:00,56.3,49.3,30.05,SE,135,0.0,0.7,77,0.00,,,0.00,WUHU216HW,2013-09-27 02:25:00,
2013-09-26 22:30:00,56.1,49.1,30.05,SE,135,0.4,0.4,77,0.00,,,0.00,WUHU216HW,2013-09-27 02:30:00,
2013-09-26 22:35:00,56.0,49.0,30.05,East,90,0.7,0.7,77,0.00,,,0.00,WUHU216HW,2013-09-27 02:35:00,
2013-09-26 22:40:00,56.0,49.0,30.05,East,90,0.0,0.7,77,0.00,,,0.00,WUHU216HW,2013-09-27 02:40:00,
2013-09-26 22:45:00,55.8,48.8,30.05,SE,135,0.0,0.4,77,0.00,,,0.00,WUHU216HW,2013-09-27 02:45:00,
2013-09-26 22:50:00,55.4,48.4,30.05,SE,135,0.0,0.2,77,0.00,,,0.00,WUHU216HW,2013-09-27 02:50:00,
2013-09-26 22:55:00,55.2,48.2,30.05,SSE,158,0.4,0.7,77,0.00,,,0.00,WUHU216HW,2013-09-27 02:55:00,
2013-09-26 23:00:00,55.1,48.1,30.05,ESE,113,0.0,0.7,77,0.00,,,0.00,WUHU216HW,2013-09-27 03:00:00,
2013-09-26 23:05:00,54.9,47.9,30.05,SE,135,0.0,0.4,77,0.00,,,0.00,WUHU216HW,2013-09-27 03:05:00,
2013-09-26 23:10:00,54.7,47.7,30.05,SE,135,0.0,0.4,77,0.00,,,0.00,WUHU216HW,2013-09-27 03:10:00,
2013-09-26 23:15:00,54.5,47.5,30.06,ENE,68,0.2,0.2,77,0.00,,,0.00,WUHU216HW,2013-09-27 03:15:00,
2013-09-26 23:20:00,54.5,47.5,30.06,ESE,113,0.0,0.4,77,0.00,,,0.00,WUHU216HW,2013-09-27 03:20:00,
2013-09-26 23:25:00,54.3,47.3,30.06,ESE,113,0.0,0.4,77,0.00,,,0.00,WUHU216HW,2013-09-27 03:25:00,
2013-09-26 23:30:00,54.2,47.2,30.06,SE,135,0.0,0.0,77,0.00,,,0.00,WUHU216HW,2013-09-27 03:30:00,
2013-09-26 23:35:00,54.2,47.5,30.06,West,270,0.0,0.0,78,0.00,,,0.00,WUHU216HW,2013-09-27 03:35:00,
2013-09-26 23:40:00,54.0,47.4,30.06,SSW,203,0.4,0.4,78,0.00,,,0.00,WUHU216HW,2013-09-27 03:40:00,
2013-09-26 23:45:00,54.0,47.4,30.06,SSW,203,0.4,0.4,78,0.00,,,0.00,WUHU216HW,2013-09-27 03:45:00,
2013-09-26 23:50:00,54.0,47.4,30.06,South,180,0.0,0.4,78,0.00,,,0.00,WUHU216HW,2013-09-27 03:50:00,
2013-09-26 23:55:00,54.0,47.4,30.06,ESE,113,0.0,0.4,78,0.00,,,0.00,WUHU216HW,2013-09-27 03:55:00,